Location: Mentone
(34.5413°N, 85.5351°W)
Time: 00:55:32
(UTC-05:00)

Vanguard 3 - All Passes

Search period start: 31 May 2016 00:00
Search period end: 10 June 2016 00:00
Orbit: 509 x 3266 km, 33.3° (Epoch: 30 May)

Date Brightness Start Highest point End Pass type
(mag) Time Alt. Az. Time Alt. Az. Time Alt. Az.
31 May - 13:22:19 10° SSW 13:26:58 29° SE 13:34:07 10° E daylight
31 May - 15:31:39 10° WSW 15:38:36 76° SSE 15:51:31 10° E daylight
31 May - 17:42:49 10° W 17:52:39 83° S 18:09:57 10° ESE daylight
31 May - 19:55:04 10° W 20:08:03 60° SSW 20:27:06 10° SE visible
31 May - 22:10:01 10° W 22:23:40 31° SW 22:39:30 10° SSE visible
01 Jun - 12:12:36 10° SSE 12:14:32 12° SE 12:16:44 10° ESE daylight
01 Jun - 14:19:23 10° SW 14:25:00 56° SSE 14:34:55 10° E daylight
01 Jun - 16:29:54 10° W 16:37:52 85° S 16:52:38 10° E daylight
01 Jun - 18:41:28 10° W 18:52:30 71° SSW 19:10:46 10° ESE daylight
01 Jun - 20:54:38 10° W 21:08:01 42° SSW 21:25:45 10° SSE visible
01 Jun - 23:13:54 10° WSW 23:23:15 16° SW 23:33:11 10° SSW visible
02 Jun - 13:07:41 10° SSW 13:12:03 32° SE 13:18:49 10° E daylight
02 Jun - 15:17:18 10° WSW 15:23:43 79° S 15:35:39 10° E daylight
02 Jun - 17:28:20 10° W 17:37:26 80° S 17:53:47 10° ESE daylight
02 Jun - 19:40:24 10° W 19:52:24 54° SSW 20:10:35 10° SE daylight
02 Jun - 21:55:37 10° W 22:07:48 26° SW 22:22:20 10° S visible
03 Jun - 11:57:15 10° S 11:59:35 14° SE 12:02:22 10° ESE daylight
03 Jun - 14:05:00 10° WSW 14:10:12 61° SSE 14:19:18 10° E daylight
03 Jun - 16:15:32 10° W 16:22:54 84° S 16:36:37 10° E daylight
03 Jun - 18:26:55 10° W 18:37:07 65° SSW 18:54:24 10° ESE daylight
03 Jun - 20:40:04 10° W 20:52:16 37° SSW 21:08:52 10° SSE visible
03 Jun - 23:01:36 10° WSW 23:07:32 12° SW 23:13:48 10° SSW visible
04 Jun - 12:53:07 10° SW 12:57:16 36° SSE 13:03:34 10° E daylight
04 Jun - 15:02:58 10° W 15:08:55 81° S 15:19:51 10° E daylight
04 Jun - 17:13:54 10° W 17:22:18 75° SSW 17:37:35 10° ESE daylight
04 Jun - 19:25:52 10° W 19:36:52 47° SSW 19:53:54 10° SE daylight
04 Jun - 21:41:35 10° W 21:52:06 21° SW 22:04:42 10° S visible
05 Jun - 11:42:08 10° S 11:44:44 16° SE 11:47:51 10° ESE daylight
05 Jun - 13:50:39 10° WSW 13:55:29 66° SSE 14:03:46 10° E daylight
05 Jun - 16:01:12 10° W 16:08:00 82° S 16:20:40 10° E daylight
05 Jun - 18:12:27 10° W 18:21:49 59° SSW 18:37:56 10° SE daylight
05 Jun - 20:25:44 10° W 20:36:41 31° SSW 20:51:42 10° SSE visible
06 Jun - 12:38:36 10° SW 12:42:33 40° SSE 12:48:24 10° E daylight
06 Jun - 14:48:42 10° W 14:54:12 82° S 15:04:09 10° E daylight
06 Jun - 16:59:31 10° W 17:07:15 70° SSW 17:21:24 10° ESE daylight
06 Jun - 19:11:27 10° W 19:21:28 41° SSW 19:37:03 10° SE daylight
06 Jun - 21:28:12 10° WSW 21:36:32 17° SW 21:46:25 10° S visible
07 Jun - 11:27:10 10° SSW 11:29:58 19° SE 11:33:18 10° E daylight
07 Jun - 13:36:20 10° WSW 13:40:51 70° SSE 13:48:23 10° E daylight
07 Jun - 15:46:53 10° W 15:53:10 79° S 16:04:46 10° ESE daylight
07 Jun - 17:58:04 10° W 18:06:38 51° SSW 18:21:24 10° SE daylight
07 Jun - 20:11:41 10° W 20:21:15 25° SSW 20:34:14 10° SSE visible
08 Jun - 12:24:08 10° SW 12:27:55 45° SSE 12:33:19 10° E daylight
08 Jun - 14:34:25 10° W 14:39:32 82° S 14:48:34 10° E daylight
08 Jun - 16:45:11 10° W 16:52:17 63° SSW 17:05:11 10° ESE daylight
08 Jun - 18:57:13 10° W 19:06:12 34° SSW 19:20:01 10° SSE daylight
08 Jun - 21:16:08 10° SW 21:21:09 12° SW 21:26:46 10° SSW visible
09 Jun - 11:12:18 10° SSW 11:15:16 23° SSE 11:18:44 10° E daylight
09 Jun - 13:22:01 10° WSW 13:26:17 74° S 13:33:04 10° E daylight
09 Jun - 15:32:36 10° W 15:38:24 73° S 15:48:56 10° ESE daylight
09 Jun - 17:43:46 10° W 17:51:34 44° SSW 18:04:46 10° SE daylight
09 Jun - 19:58:02 10° WSW 20:05:57 20° SSW 20:16:20 10° S daylight
